[ hide orbit diagram ]
For accurate long-term ephemerides, please instead use our Horizons system.This orbit viewer was implemented using two-body methods, and hence should not be used for determining accurate long-term trajectories (over several years or decades) or planetary encounter circumstances.
Orbital Elements at Epoch 2459000.5 (2020-May-31.0) TDB
Reference: JPL 14 (heliocentric ecliptic J2000)
Element | Value | Uncertainty (1-sigma) | Units |
e | .1446637096965597 | 8.9323e-08 | |
a | 2.403814164988624 | 3.0549e-08 | au |
q | 2.056069490460232 | 2.0344e-07 | au |
i | 7.259699438816702 | 5.6826e-06 | deg |
node | 126.2199655540636 | 5.1369e-05 | deg |
peri | 243.6147111359446 | 5.5011e-05 | deg |
M | 282.9495451936353 | 2.1375e-05 | deg |
tp | 2459291.854994770860 (2021-Mar-18.35499477) | 8.3288e-05 | TDB |
period | 1361.28720305549 3.73 | 2.595e-05 7.105e-08 | d yr |
n | .2644555823282247 | 5.0412e-09 | deg/d |
Q | 2.751558839517017 | 3.4968e-08 | au |
|
| | Orbit Determination Parameters
Additional Information
|
[ show covariance matrix ]
Physical Parameter Table
Parameter |
Symbol |
Value |
Units |
Sigma |
Reference |
Notes |
absolute magnitude |
H |
17.0 |
|
n/a |
MPO328365 |
|
|
469028 (2015 AR245) Discovered 2004-Mar-01 by Spacewatch at Kitt Peak |
Reference: | Last Updated: 2016-06-21 |
|
|